User: anonymous   Login
Location: Caltech
(34.1382°N, 118.1253°W)
Time: 19:49:47
(UTC-07:00)
Language:

Oscar 16 - Orbit

View from above orbital plane
View from above orbital plane
View from above satellite
View from above satellite

Ground track
Ground track

The orbit data is extracted from the following two-line orbital elements,

1 20439U 90005D   18169.41465424 +.00000019 +00000-0 +23313-4 0  9993
2 20439 098.6484 112.1048 0011163 157.0839 313.3399 14.32724546483599
Epoch (UTC): 18 June 2018 09:57:06
Eccentricity: 0.0011163
inclination: 98.6484°
perigee height: 774 km
apogee height: 790 km
right ascension of ascending node: 112.1048°
argument of perigee: 157.0839°
revolutions per day: 14.32724546
mean anomaly at epoch: 313.3399°
orbit number at epoch: 48359

The dashed part of the orbit path shows where the satellite is in the earth's shadow,  

DLR